Regional Weather Roundup
Issued by NWS

Home | Current Version | Previous Version | Graphics & Text | Print | Product List | Glossary On
Versions: 1 2 3 4 5 6 7 8 9 10 11 12 13 14 15 16 17 18 19 20 21 22 23 24 25 26 27
000
ASUS45 KCYS 280210
RWRWY

WYOMING REGIONAL WEATHER ROUNDUP
NATIONAL WEATHER SERVICE CHEYENNE WY
800 PM MDT SAT AUG 27 2016

NOTE:  "FAIR" INDICATES FEW OR NO CLOUDS BELOW 12,000 FEET
WITH NO SIGNIFICANT WEATHER AND/OR OBSTRUCTIONS TO VISIBILITY.

WYZ001-280300-
YELLOWSTONE NATIONAL PARK

CITY           SKY/WX    TMP DP  RH WIND       PRES   REMARKS
LK YELLOWSTONE   N/A     56  28  34 CALM      30.21R
W YELLOWSTONE  NOT AVBL

$$
WYZ002>013-054>058-071-098>099-280300-
NORTHERN WYOMING

CITY           SKY/WX    TMP DP  RH WIND       PRES   REMARKS
JACKSON        CLEAR     64  25  22 SW7       30.11R
CODY           FAIR      72  32  23 SE12      29.95R
GREYBULL       FAIR      76  37  24 E5        29.86R
WORLAND        FAIR      73  32  22 S8        29.88S
SHERIDAN       FAIR      71  45  39 SE5       29.89R
BUFFALO        FAIR      68  36  30 W5        29.97S
GILLETTE       FAIR      70  37  29 N9        29.92R
HULETT         FAIR      70  46  43 SE5       29.94R
NEWCASTLE      FAIR      72  37  28 E8        29.94S

$$
WYZ014>020-022>026-101>103-280300-
CENTRAL WYOMING

CITY           SKY/WX    TMP DP  RH WIND       PRES   REMARKS
BIG PINEY      FAIR      62  33  33 NW10      30.16R
PINEDALE       FAIR      63  27  25 NW5       30.17R
DUBOIS         FAIR      64  21  19 W8        30.13R
LANDER         FAIR      73  30  20 W9        29.99R
RIVERTON       FAIR      72  29  20 E5        30.00R
CASPER         FAIR      69  31  24 CALM      30.01R
DOUGLAS        FAIR      68  30  24 W6        30.00R

$$
WYZ021-027>030-104>119-280300-
SOUTHERN WYOMING

CITY           SKY/WX    TMP DP  RH WIND       PRES   REMARKS
EVANSTON       FAIR      66  22  18 W12       30.19R
FORT BRIDGER   FAIR      69  16  13 W9G18     30.20R
ROCK SPRINGS   FAIR      70  17  13 W10       30.14R
DIXON          FAIR      68  30  24 S6        30.19R
RAWLINS        FAIR      66  22  18 SW6       30.15R
SARATOGA       FAIR      64  27  24 SW9       30.19R
LARAMIE        FAIR      64  30  27 W7        30.19R
CHEYENNE       FAIR      69  39  33 S6        30.12R
TORRINGTON     FAIR      72  50  45 SE10      29.96S
PINE BLUFFS    FAIR      68  43  40 S7        30.06R

$$




USA.gov is the U.S. government's official web portal to all federal, state and local government web resources and services.